Home   Weather   Washington Monument   Past weeks
Flag for USA

Past Weather in Washington Monument, Maryland, USA — Yesterday and Last 2 Weeks

Now
52 °F

Passing clouds.


Feels Like: 52 °F
Forecast: 65 / 51 °F
Wind: No wind

Location: Baltimore-Washington International Airport

Current Time: Oct 15, 2019 at 11:18:26 pm

Latest Report: Oct 15, 2019 at 9:54 pm


Visibility: 10 mi

Pressure: 30.03 "Hg

Humidity: 75%

Dew Point: 44 °F

Location of Washington MonumentLocation

Past Weather in Washington Monument — Graph

°F

Washington Monument Temperature Yesterday

Maximum temperature yesterday: 76 °F (at 1:54 pm)
Minimum temperature yesterday: 47 °F (at 5:54 am)
Average temperature yesterday: 62 °F

High & Low Weather Summary for the Past Weeks

 TemperatureHumidityPressure
High96 °F (Oct 2, 1:54 pm)97% (Oct 3, 12:54 pm)30.44 "Hg (Oct 3, 12:54 pm)
Low46 °F (Oct 15, 5:54 am)24% (Oct 14, 3:54 pm)29.81 "Hg (Oct 2, 5:54 pm)
Average66 °F63%30.11 "Hg
* Reported Sep 30 8:54 pm — Oct 15 8:54 pm, Washington Monument. Weather by CustomWeather, © 2019

Note: Actual official high and low records may vary slightly from our data, if they occured in-between our weather recording intervals... More about our weather records

Advertising

Washington Monument Weather History for the Previous 24 Hours

Scroll right to see more
 ConditionsComfort  
Time TempWeatherWind HumidityBarometerVisibility
8:54 pm
Tue, Oct 15
55 °FPassing clouds.No wind64%30.03 "Hg10 mi
7:54 pm60 °FPassing clouds.7 mph52%30.05 "Hg10 mi
6:54 pm63 °FPassing clouds.5 mph45%30.05 "Hg10 mi
5:54 pm67 °FPassing clouds.6 mph39%30.06 "Hg10 mi
4:54 pm69 °FPassing clouds.7 mph36%30.06 "Hg10 mi
3:54 pm70 °FPassing clouds.12 mph35%30.08 "Hg10 mi
2:54 pm70 °FPassing clouds.6 mph37%30.10 "Hg10 mi
1:54 pm69 °FPassing clouds.3 mph38%30.13 "Hg10 mi
12:54 pm68 °FPassing clouds.3 mph40%30.15 "Hg10 mi
11:54 am65 °FPassing clouds.8 mph49%30.17 "Hg10 mi
10:54 am63 °FPassing clouds.8 mph54%30.18 "Hg10 mi
9:54 am61 °FPassing clouds.8 mph54%30.19 "Hg10 mi
8:54 am57 °FPassing clouds.6 mph62%30.19 "Hg10 mi
7:54 am47 °FPassing clouds.No wind83%30.16 "Hg10 mi
6:54 am46 °FClear.3 mph86%30.15 "Hg10 mi
5:54 am46 °FClear.No wind86%30.13 "Hg10 mi
4:54 am47 °FClear.3 mph86%30.12 "Hg10 mi
3:54 am48 °FClear.No wind83%30.11 "Hg10 mi
2:54 am47 °FClear.No wind83%30.11 "Hg10 mi
1:54 am49 °FClear.5 mph84%30.10 "Hg10 mi
12:54 am52 °FClear.No wind77%30.08 "Hg10 mi
11:54 pm
Mon, Oct 14
59 °FClear.No wind54%30.06 "Hg10 mi
Weather by CustomWeather, © 2019

See weather overview